Wind_Speed
34 33 32 32 34 35 37 38 39 39 40 40 39 39 38 38 37 38 38 39 40 42 45 47 49 51 53 54 55 58 61 64 67 69 70 69 69 70 72 74 75 77 79
31 31 31 31 33 35 37 38 39 40 40 41 41 41 41 41 41 41 42 43 45 47 49 51 54 55 58 60 62 64 67 71 74 76 77 76 73 72 74 76 77 78 80
27 29 30 31 32 34 37 38 38 39 40 41 42 43 43 44 44 46 47 49 51 52 54 56 57 59 62 65 67 69 72 74 75 77 78 77 74 71 69 70 71 73 74
29 31 32 32 32 34 36 36 37 39 41 43 44 45 46 47 48 50 52 54 55 57 59 60 61 64 65 66 67 67 68 68 68 69 69 68 65 61 57 58 60 61 61
33 34 34 33 33 35 35 36 38 41 44 46 47 48 50 51 52 54 56 57 59 61 62 63 65 64 64 62 61 61 60 59 58 56 55 55 54 53 52 52 51 50 48
36 37 37 36 36 37 37 38 41 44 47 49 50 52 53 54 55 57 59 60 61 62 63 64 63 62 58 56 55 55 54 53 53 52 51 51 51 51 50 49 47 45 41
40 41 41 40 41 40 40 41 44 47 50 52 53 55 55 57 58 60 61 62 62 62 62 61 59 55 51 49 49 49 49 50 50 50 50 49 49 48 47 46 45 42 39
42 43 42 42 43 42 42 44 46 48 52 55 56 57 57 58 60 61 62 63 62 61 60 56 51 47 45 44 45 46 48 49 49 50 49 48 47 46 45 44 42 39 35
38 39 39 40 41 42 44 45 46 49 53 56 57 57 59 61 63 64 64 63 62 60 55 48 44 42 41 43 45 47 48 49 50 50 50 48 47 44 42 41 39 37 32
35 36 37 39 41 44 46 46 48 51 55 57 59 61 63 64 66 67 67 65 60 54 46 42 40 40 42 45 47 49 50 51 51 51 50 48 47 44 41 39 37 36 32
38 38 39 41 43 45 46 46 49 53 56 59 63 65 66 67 67 67 64 57 49 42 39 38 39 41 44 47 49 51 52 52 52 51 49 47 45 43 41 39 37 35 32
42 42 42 43 44 44 43 46 50 54 58 62 66 66 66 66 65 61 52 43 38 35 36 37 40 44 47 50 52 52 52 52 51 49 47 45 43 42 40 38 36 33 30
45 45 45 44 41 40 42 46 51 55 61 65 66 65 64 63 58 48 39 35 34 35 37 39 43 47 51 52 52 52 51 50 48 47 45 42 41 39 37 36 33 31 28
48 46 43 38 37 39 43 48 54 60 64 64 63 61 60 55 46 38 35 34 35 37 39 43 47 50 52 52 51 50 48 47 46 44 41 39 38 36 34 32 30 28 25
43 40 35 34 37 41 47 53 59 63 62 61 59 57 53 45 39 37 36 37 38 41 44 48 51 52 52 51 49 47 45 45 44 42 39 37 36 33 30 28 26 24 22
36 34 33 36 41 47 53 59 61 60 58 56 55 52 45 40 38 38 38 40 42 46 49 52 53 53 51 49 48 45 43 43 41 39 37 35 32 29 26 24 22 21 19
36 34 38 43 47 52 56 58 57 56 54 53 50 45 40 39 38 39 41 44 47 50 52 53 52 51 50 49 46 44 43 41 38 36 33 31 28 25 22 20 18 17 16
45 45 46 47 49 53 54 53 52 51 50 48 44 40 38 39 40 42 45 48 51 52 53 52 51 50 49 46 44 42 41 38 34 30 28 27 24 22 19 17 15 13 12
46 44 45 46 48 49 49 49 47 47 46 42 39 37 38 40 42 44 47 50 51 51 51 51 50 48 46 44 41 39 35 32 28 25 25 23 20 18 15 14 13 11 10
44 43 43 44 44 45 45 44 44 43 40 37 36 37 39 41 44 46 48 49 49 50 51 51 49 45 43 41 37 33 29 26 24 23 22 20 17 13 11 11 11 10 10
39 39 39 40 40 41 40 40 41 39 35 34 35 38 40 43 45 46 47 48 49 51 51 49 46 43 41 37 33 29 25 23 21 20 19 16 12 8 8 10 11 10 9
35 35 35 36 36 36 37 38 36 33 32 33 35 38 41 43 44 45 46 48 49 49 47 44 43 41 37 33 29 26 24 21 19 17 14 10 6 5 9 11 11 10 10
30 31 32 32 32 33 34 33 30 29 30 33 36 39 41 42 43 44 45 46 46 45 43 41 38 34 31 28 27 25 23 19 16 12 8 4 3 8 12 14 14 13 13
27 29 29 30 30 30 29 26 25 27 30 33 36 39 39 40 42 42 43 43 42 41 40 36 32 28 26 26 25 23 19 15 10 4 1 2 6 11 15 17 17 16 17
26 26 26 27 27 24 22 22 24 27 30 34 36 38 39 40 41 41 41 40 39 38 35 31 28 25 24 23 21 19 14 9 5 3 4 6 9 14 18 20 19 18 19
22 23 23 23 20 18 18 20 23 27 30 33 35 37 39 40 40 40 39 38 37 35 32 30 27 25 23 21 19 16 11 8 7 7 8 9 12 16 20 22 21 20 20
Wind_Direction
296 302 309 312 313 315 318 319 318 318 318 318 317 316 315 314 313 312 311 309 307 305 303 301 300 297 296 294 292 289 288 287 287 287 287 286 286 286 285 285 284 282 280
292 299 305 307 310 313 316 316 316 316 316 316 316 315 314 313 312 311 310 308 306 304 302 300 299 298 296 296 294 292 290 289 288 288 287 286 285 285 286 285 284 283 281
288 294 299 301 305 309 313 314 314 314 314 315 315 314 313 312 311 310 309 307 305 304 302 301 300 298 297 296 295 294 293 291 290 289 289 288 287 286 285 285 285 283 281
288 293 295 296 300 306 311 312 313 313 314 315 315 314 312 311 309 308 307 306 305 304 304 303 302 301 300 299 299 298 297 296 294 292 290 290 289 288 288 288 288 287 284
287 289 290 289 293 301 307 312 314 315 316 316 315 314 312 310 308 307 306 305 305 304 304 303 303 302 301 301 302 302 302 301 299 298 295 293 292 291 292 292 292 290 288
282 284 285 284 288 296 302 307 311 314 315 315 314 313 312 310 309 308 307 306 305 304 303 302 301 301 300 301 303 304 305 305 304 302 299 296 294 293 293 292 293 292 289
278 281 281 281 284 292 298 300 306 312 315 316 315 314 312 311 309 308 306 304 303 302 301 300 300 299 300 302 305 307 308 308 306 303 300 297 295 294 293 293 292 290 287
280 278 277 279 283 289 293 297 303 310 314 315 315 313 312 310 308 306 304 303 301 300 300 299 299 299 301 304 307 310 311 310 308 304 300 296 294 293 293 294 293 291 286
281 280 280 281 284 287 291 295 302 309 311 313 313 311 310 308 307 306 305 303 302 301 300 299 298 300 303 306 308 311 312 312 310 306 300 295 292 290 291 293 294 293 289
283 279 278 281 284 287 290 295 302 307 309 311 312 312 311 310 309 308 307 304 302 300 298 297 299 301 304 308 310 312 313 313 311 307 302 295 290 286 286 289 292 294 293
283 284 283 282 284 286 291 298 303 307 310 313 314 313 312 311 311 310 308 305 302 298 297 299 301 304 307 310 312 313 313 313 311 307 302 296 290 285 282 284 288 292 293
282 284 282 281 282 286 293 300 305 309 312 314 313 312 312 312 312 311 309 306 302 300 301 303 305 308 310 311 311 312 312 311 309 306 302 297 292 286 281 280 283 286 290
281 282 280 278 280 288 297 304 309 312 314 313 312 312 312 313 313 311 310 307 305 305 306 307 309 311 312 311 311 310 310 309 306 304 301 298 293 287 281 278 278 280 283
277 276 271 275 287 298 305 309 312 314 313 313 313 313 314 314 312 310 309 308 308 309 310 311 311 312 312 311 310 309 307 306 304 303 302 300 295 289 281 276 275 275 277
270 268 273 290 302 307 309 311 312 313 313 313 314 315 315 313 310 309 309 310 311 311 312 312 312 312 311 310 309 308 305 304 303 302 302 301 296 290 281 274 271 269 269
268 275 289 302 308 310 311 311 312 312 313 314 314 315 313 310 309 310 311 311 312 313 314 313 313 312 311 310 309 307 304 302 301 302 301 301 297 290 282 273 266 260 259
278 291 306 312 312 311 310 310 311 312 313 313 313 312 310 309 310 311 312 313 314 315 315 315 314 313 311 310 310 308 304 302 302 301 301 299 295 288 281 272 261 251 250
282 296 307 310 308 308 309 310 311 312 312 312 311 309 309 310 312 314 315 316 317 317 317 317 316 314 312 311 310 308 305 304 303 301 302 300 293 286 278 267 254 243 239
291 300 305 305 305 307 309 310 310 311 311 310 308 308 311 312 314 316 318 319 320 320 319 318 317 315 314 313 312 311 308 305 303 302 305 303 293 283 272 255 239 227 225
291 299 301 302 305 307 308 308 309 309 309 307 308 310 312 314 317 320 321 322 323 322 322 321 320 319 318 317 317 317 313 309 304 303 305 303 294 277 259 234 215 208 213
292 294 297 301 304 306 307 307 308 307 306 306 309 312 314 318 322 324 325 325 325 325 325 325 324 323 323 323 323 323 319 313 307 305 304 301 289 261 225 200 192 195 202
289 293 297 301 303 304 305 306 306 305 305 308 312 315 319 323 326 327 328 329 329 329 329 329 328 327 327 328 327 326 322 317 311 307 303 298 273 201 176 171 170 175 178
286 291 296 299 301 303 304 304 303 304 307 312 316 320 325 328 330 332 332 332 332 332 332 331 330 330 331 333 332 329 325 320 315 311 301 284 187 158 155 154 154 155 154
285 290 294 297 300 302 303 302 303 307 312 317 321 325 330 333 335 335 334 334 335 335 335 335 335 337 338 338 336 334 332 329 328 327 305 144 141 146 148 148 148 147 145
287 291 293 296 300 301 301 303 307 312 317 322 326 331 335 337 337 337 337 337 338 339 340 341 341 342 343 345 346 346 349 358 26 70 108 125 135 143 146 147 146 145 144
288 290 294 298 300 300 302 307 313 319 323 328 334 337 339 339 339 339 340 341 343 345 345 345 344 344 347 351 357 4 19 43 63 82 99 112 129 141 146 147 145 144 144
Height
5861 5859 5858 5855 5853 5850 5847 5844 5841 5838 5835 5831 5828 5824 5821 5817 5813 5809 5805 5801 5797 5792 5788 5784 5779 5774 5769 5765 5760 5756 5750 5744 5738 5733 5731 5729 5725 5721 5716 5711 5706 5702 5697
5859 5857 5854 5851 5849 5846 5843 5839 5836 5832 5828 5824 5821 5817 5812 5808 5804 5800 5795 5791 5787 5782 5778 5773 5768 5762 5757 5751 5746 5741 5734 5727 5720 5714 5709 5708 5709 5704 5697 5690 5683 5678 5673
5854 5852 5850 5847 5845 5842 5838 5834 5830 5826 5822 5818 5814 5809 5805 5800 5796 5791 5786 5781 5776 5771 5766 5761 5755 5749 5742 5735 5729 5723 5716 5709 5701 5693 5687 5683 5682 5681 5679 5669 5662 5655 5649
5849 5848 5845 5843 5840 5837 5833 5828 5824 5820 5815 5811 5806 5802 5797 5792 5787 5781 5776 5770 5764 5758 5752 5746 5740 5733 5726 5719 5711 5704 5696 5689 5681 5674 5668 5662 5659 5657 5656 5650 5642 5635 5628
5844 5842 5840 5837 5835 5831 5826 5821 5816 5812 5807 5803 5798 5793 5788 5783 5777 5772 5765 5759 5752 5745 5738 5732 5724 5717 5710 5702 5695 5687 5680 5672 5665 5658 5652 5647 5643 5639 5636 5632 5626 5620 5613
5837 5836 5833 5831 5828 5824 5820 5814 5809 5805 5800 5795 5790 5784 5779 5773 5767 5760 5753 5747 5740 5733 5725 5718 5710 5703 5696 5689 5682 5674 5667 5660 5652 5645 5639 5634 5630 5626 5622 5617 5612 5607 5603
5830 5828 5826 5823 5820 5817 5812 5807 5802 5798 5793 5787 5781 5775 5769 5762 5756 5749 5742 5735 5728 5720 5713 5705 5698 5690 5683 5677 5670 5663 5656 5649 5642 5635 5629 5623 5618 5614 5610 5605 5600 5596 5593
5822 5819 5816 5814 5811 5808 5804 5799 5795 5790 5785 5779 5773 5766 5760 5753 5746 5738 5731 5723 5715 5707 5699 5692 5685 5678 5672 5666 5659 5652 5645 5638 5632 5625 5619 5613 5608 5603 5598 5593 5589 5585 5583
5813 5810 5808 5806 5803 5800 5796 5791 5787 5782 5777 5771 5765 5758 5751 5743 5735 5726 5717 5708 5700 5692 5685 5678 5673 5667 5662 5655 5649 5642 5635 5628 5621 5614 5607 5602 5597 5592 5588 5583 5578 5575 5573
5806 5803 5801 5798 5795 5791 5787 5783 5778 5774 5769 5762 5755 5747 5739 5730 5720 5711 5702 5693 5685 5678 5672 5667 5663 5657 5652 5645 5639 5631 5624 5616 5609 5602 5595 5589 5585 5581 5577 5573 5569 5565 5562
5798 5795 5792 5789 5785 5781 5777 5773 5769 5764 5758 5751 5743 5734 5725 5716 5706 5697 5687 5678 5671 5666 5662 5658 5653 5648 5642 5635 5627 5620 5612 5604 5596 5589 5582 5577 5572 5568 5565 5563 5560 5557 5553
5790 5787 5783 5779 5775 5771 5768 5764 5760 5754 5748 5740 5731 5722 5713 5703 5694 5684 5674 5667 5662 5658 5654 5649 5644 5638 5631 5623 5615 5607 5599 5591 5584 5576 5569 5564 5559 5556 5553 5552 5550 5548 5546
5781 5778 5773 5769 5765 5762 5759 5755 5750 5744 5736 5728 5720 5711 5701 5692 5683 5674 5666 5661 5656 5651 5646 5641 5634 5627 5619 5611 5602 5594 5586 5578 5571 5564 5557 5552 5547 5544 5542 5541 5540 5540 5538
5770 5766 5761 5758 5755 5752 5749 5745 5739 5732 5725 5717 5708 5699 5690 5682 5673 5666 5660 5655 5649 5644 5638 5631 5624 5616 5607 5598 5589 5580 5572 5565 5557 5551 5546 5540 5536 5532 5531 5530 5530 5531 5531
5757 5753 5749 5748 5746 5743 5739 5734 5728 5721 5713 5705 5697 5689 5681 5673 5666 5660 5654 5648 5642 5635 5628 5621 5613 5604 5594 5585 5576 5568 5560 5552 5545 5539 5534 5530 5525 5522 5520 5521 5522 5523 5523
5745 5741 5740 5739 5737 5733 5729 5724 5717 5710 5702 5695 5687 5680 5672 5665 5659 5653 5647 5640 5633 5625 5617 5609 5600 5590 5581 5571 5563 5555 5548 5541 5534 5529 5524 5519 5515 5513 5511 5512 5514 5515 5516
5736 5733 5731 5729 5727 5723 5718 5712 5706 5699 5692 5685 5678 5672 5665 5659 5652 5646 5639 5631 5623 5615 5606 5596 5586 5576 5567 5558 5550 5543 5535 5528 5523 5519 5514 5510 5507 5505 5504 5505 5506 5508 5510
5729 5726 5723 5721 5718 5714 5708 5702 5696 5690 5684 5677 5671 5664 5658 5652 5645 5638 5630 5621 5612 5603 5593 5583 5573 5564 5554 5546 5539 5531 5522 5517 5513 5509 5505 5502 5499 5497 5497 5498 5500 5503 5505
5721 5719 5716 5713 5709 5704 5699 5694 5688 5682 5676 5670 5664 5658 5652 5645 5638 5630 5621 5611 5601 5592 5582 5571 5562 5552 5543 5535 5527 5519 5512 5507 5503 5500 5497 5494 5492 5491 5491 5493 5495 5498 5501
5714 5712 5709 5705 5701 5696 5691 5686 5680 5675 5669 5664 5658 5652 5645 5638 5630 5621 5611 5601 5591 5581 5571 5560 5550 5540 5532 5524 5517 5510 5504 5499 5496 5493 5490 5488 5486 5485 5486 5489 5492 5495 5497
5706 5704 5701 5697 5693 5689 5684 5679 5674 5669 5663 5658 5653 5646 5639 5630 5621 5612 5602 5592 5582 5571 5560 5550 5540 5531 5523 5515 5509 5503 5497 5493 5489 5487 5484 5482 5481 5481 5483 5486 5489 5492 5495
5699 5697 5693 5690 5686 5682 5678 5673 5668 5663 5658 5653 5647 5640 5632 5623 5613 5604 5594 5583 5573 5562 5551 5541 5532 5523 5515 5508 5502 5497 5492 5487 5484 5481 5479 5478 5477 5478 5481 5484 5487 5490 5493
5692 5690 5687 5684 5680 5676 5672 5668 5663 5658 5654 5648 5642 5634 5625 5615 5606 5596 5586 5576 5565 5555 5545 5535 5526 5517 5510 5503 5497 5492 5486 5482 5479 5477 5476 5475 5476 5477 5480 5484 5487 5490 5493
5686 5684 5681 5678 5674 5670 5666 5662 5658 5654 5649 5644 5636 5628 5619 5609 5600 5590 5580 5570 5560 5550 5540 5530 5521 5513 5506 5500 5494 5488 5483 5479 5476 5475 5475 5475 5476 5478 5481 5485 5488 5491 5494
5680 5677 5675 5672 5669 5665 5661 5659 5655 5651 5645 5639 5630 5621 5613 5604 5595 5585 5575 5565 5556 5545 5536 5526 5518 5511 5504 5498 5492 5486 5481 5478 5476 5475 5476 5476 5477 5479 5482 5486 5490 5494 5497
5674 5672 5670 5667 5663 5661 5658 5656 5652 5647 5641 5634 5625 5616 5608 5599 5590 5581 5571 5561 5551 5541 5532 5523 5515 5508 5502 5497 5491 5486 5483 5480 5479 5478 5478 5478 5479 5481 5485 5489 5493 5497 5501